CW5983 Weather Reports


time (UTC)temp
C
wind
direction
speed
KPH
gust
KPH
rain 1hr
cm
rain 24hr
cm
rain mn
cm
humidity
%
barometer
mb
20220811234901 35 342 14.5 25.7 0.00 0.00 0.00 47 996.5
20220811234502 35 321 19.3 25.7 0.00 0.00 0.00 43 996.4
20220811234401 35 347 20.9 25.7 0.00 0.00 0.00 44 996.5
20220811234304 35 343 19.3 25.7 0.00 0.00 0.00 43 996.4
20220811233904 35 319 12.9 29.0 0.00 0.00 0.00 45 996.5
20220811233701 35 341 9.7 29.0 0.00 0.00 0.00 43 996.4
20220811233601 35 331 14.5 29.0 0.00 0.00 0.00 41 996.4
20220811233506 35 335 12.9 29.0 0.00 0.00 0.00 44 996.3
20220811233402 35 328 19.3 29.0 0.00 0.00 0.00 40 996.4
20220811233105 35 334 6.4 25.7 0.00 0.00 0.00 45 996.4
20220811232703 35 309 22.5 25.7 0.00 0.00 0.00 42 996.4
20220811232601 35 324 9.7 25.7 0.00 0.00 0.00 40 996.4
20220811232502 35 342 20.9 25.7 0.00 0.00 0.00 45 996.4
20220811232009 36 324 19.3 25.7 0.00 0.00 0.00 42 996.5
20220811231801 35 328 12.9 25.7 0.00 0.00 0.00 41 996.5
20220811231601 36 339 16.1 24.1 0.00 0.00 0.00 41 996.5
20220811231506 36 360 14.5 24.1 0.00 0.00 0.00 43 996.5
20220811231401 36 326 14.5 24.1 0.00 0.00 0.00 42 996.5
20220811231304 36 333 14.5 24.1 0.00 0.00 0.00 42 996.5
20220811230701 36 11 12.9 22.5 0.00 0.00 0.00 42 996.4
20220811230604 36 324 9.7 27.4 0.00 0.00 0.00 42 996.4
20220811230301 36 5 12.9 27.4 0.00 0.00 0.00 44 996.3
20220811230204 36 340 8.0 27.4 0.00 0.00 0.00 43 996.3
20220811230101 36 337 12.9 27.4 0.00 0.00 0.00 43 996.3
20220811225701 36 341 9.7 22.5 0.00 0.00 0.00 42 996.2
20220811225401 36 334 14.5 24.1 0.00 0.00 0.00 42 996.2
20220811225304 36 327 17.7 25.7 0.00 0.00 0.00 43 996.2
20220811225201 36 313 12.9 25.7 0.00 0.00 0.00 44 996.3
20220811224901 36 348 14.5 25.7 0.00 0.00 0.00 42 996.2
20220811224800 36 319 17.7 25.7 0.00 0.00 0.00 41 996.3
20220811224703 36 349 14.5 25.7 0.00 0.00 0.00 42 996.4
20220811224502 36 322 19.3 25.7 0.00 0.00 0.00 40 996.3
20220811224303 36 338 16.1 25.7 0.00 0.00 0.00 41 996.4
20220811224201 36 326 14.5 25.7 0.00 0.00 0.00 42 996.3
20220811223801 36 321 14.5 25.7 0.00 0.00 0.00 39 996.3
20220811223601 36 290 19.3 25.7 0.00 0.00 0.00 40 996.3
20220811223505 36 348 9.7 25.7 0.00 0.00 0.00 40 996.3
20220811223401 36 327 9.7 30.6 0.00 0.00 0.00 42 996.4
20220811223303 36 314 19.3 30.6 0.00 0.00 0.00 42 996.3
20220811223206 36 319 20.9 30.6 0.00 0.00 0.00 41 996.4
20220811223003 36 309 14.5 30.6 0.00 0.00 0.00 41 996.3
20220811222901 36 330 12.9 30.6 0.00 0.00 0.00 40 996.3
20220811222501 36 306 16.1 27.4 0.00 0.00 0.00 39 996.3
20220811222201 37 323 16.1 29.0 0.00 0.00 0.00 39 996.3
20220811222101 37 321 12.9 29.0 0.00 0.00 0.00 37 996.3
20220811221901 37 315 9.7 29.0 0.00 0.00 0.00 38 996.2
20220811221603 37 335 17.7 29.0 0.00 0.00 0.00 37 996.3
20220811221502 37 324 17.7 29.0 0.00 0.00 0.00 38 996.2
20220811221203 37 306 16.1 38.6 0.00 0.00 0.00 37 996.3
20220811220901 37 333 9.7 38.6 0.00 0.00 0.00 38 996.2
20220811220601 37 314 24.1 38.6 0.00 0.00 0.00 35 996.2
20220811220404 37 297 22.5 38.6 0.00 0.00 0.00 36 996.3
20220811220201 37 272 12.9 27.4 0.00 0.00 0.00 37 996.1
20220811215803 37 325 17.7 27.4 0.00 0.00 0.00 39 996.2
20220811215505 37 302 22.5 27.4 0.00 0.00 0.00 38 996.2
20220811215403 37 321 14.5 27.4 0.00 0.00 0.00 38 996.1
20220811215305 37 331 14.5 27.4 0.00 0.00 0.00 37 996.1
20220811215206 37 322 16.1 27.4 0.00 0.00 0.00 38 996.1
20220811215103 37 327 19.3 27.4 0.00 0.00 0.00 39 996.1
20220811214904 37 318 14.5 25.7 0.00 0.00 0.00 41 996.2
20220811214602 37 328 14.5 24.1 0.00 0.00 0.00 42 996.2
20220811214405 37 327 9.7 24.1 0.00 0.00 0.00 42 996.4
20220811214303 37 324 12.9 24.1 0.00 0.00 0.00 41 996.3
20220811214203 37 340 9.7 24.1 0.00 0.00 0.00 42 996.4
20220811214008 37 326 14.5 24.1 0.00 0.00 0.00 41 996.4
20220811213606 37 351 16.1 24.1 0.00 0.00 0.00 40 996.5
20220811213303 37 304 8.0 19.3 0.00 0.00 0.00 42 996.4
20220811213103 37 299 17.7 19.3 0.00 0.00 0.00 44 996.5
20220811213007 37 308 11.3 19.3 0.00 0.00 0.00 44 996.4
20220811212903 37 319 12.9 17.7 0.00 0.00 0.00 44 996.5
20220811212703 37 333 14.5 17.7 0.00 0.00 0.00 45 996.5
20220811212305 37 327 9.7 17.7 0.00 0.00 0.00 48 996.4
20220811212203 37 329 12.9 17.7 0.00 0.00 0.00 48 996.4
20220811211903 37 318 9.7 17.7 0.00 0.00 0.00 50 996.5
20220811211802 37 311 9.7 17.7 0.00 0.00 0.00 50 996.5
20220811211402 37 330 16.1 17.7 0.00 0.00 0.00 50 996.6
20220811211204 37 340 8.0 17.7 0.00 0.00 0.00 50 996.6
20220811211005 37 323 8.0 16.1 0.00 0.00 0.00 50 996.6
20220811210906 37 338 8.0 16.1 0.00 0.00 0.00 50 996.5
20220811210803 37 317 8.0 16.1 0.00 0.00 0.00 50 996.5
20220811210703 37 313 6.4 16.1 0.00 0.00 0.00 51 996.6
20220811210607 37 330 9.7 16.1 0.00 0.00 0.00 51 996.6
20220811210403 37 346 8.0 16.1 0.00 0.00 0.00 50 996.6
20220811210206 37 324 12.9 16.1 0.00 0.00 0.00 50 996.7
20220811210103 37 324 12.9 16.1 0.00 0.00 0.00 50 996.7
20220811210009 37 324 12.9 16.1 0.00 0.00 0.00 50 996.7
20220811205803 37 309 8.0 17.7 0.00 0.00 0.00 50 996.7
20220811205506 37 319 4.8 17.7 0.00 0.00 0.00 48 996.7
20220811205305 37 331 8.0 17.7 0.00 0.00 0.00 47 996.8
20220811205203 37 338 6.4 17.7 0.00 0.00 0.00 47 996.8
20220811205105 37 322 14.5 17.7 0.00 0.00 0.00 47 996.8
20220811205005 37 330 14.5 16.1 0.00 0.00 0.00 49 996.8
20220811204903 37 336 6.4 14.5 0.00 0.00 0.00 48 996.8
20220811204706 37 341 6.4 16.1 0.00 0.00 0.00 51 996.9
20220811204603 37 333 9.7 16.1 0.00 0.00 0.00 52 996.8
20220811204403 37 328 6.4 16.1 0.00 0.00 0.00 51 996.8
20220811204203 37 319 6.4 16.1 0.00 0.00 0.00 51 996.8
20220811203803 37 315 9.7 14.5 0.00 0.00 0.00 50 996.7
20220811203704 37 327 8.0 16.1 0.00 0.00 0.00 50 996.7
20220811203603 37 323 9.7 16.1 0.00 0.00 0.00 50 996.7
20220811203506 37 344 8.0 16.1 0.00 0.00 0.00 50 996.8
20220811203404 37 323 9.7 16.1 0.00 0.00 0.00 50 996.8
20220811203303 37 348 12.9 16.1 0.00 0.00 0.00 51 996.8
20220811202903 37 344 12.9 16.1 0.00 0.00 0.00 49 996.9
20220811202604 37 349 6.4 19.3 0.00 0.00 0.00 50 996.9
20220811202503 37 318 12.9 19.3 0.00 0.00 0.00 50 996.9
20220811202403 37 326 9.7 19.3 0.00 0.00 0.00 50 996.9
20220811202203 37 346 9.7 19.3 0.00 0.00 0.00 49 996.9
20220811202010 37 5 9.7 19.3 0.00 0.00 0.00 47 997.0
20220811201903 37 342 6.4 19.3 0.00 0.00 0.00 46 996.9
20220811201706 37 338 8.0 17.7 0.00 0.00 0.00 46 997.0
20220811201603 37 328 16.1 17.7 0.00 0.00 0.00 47 997.1
20220811201402 37 350 14.5 17.7 0.00 0.00 0.00 45 997.1
20220811201007 38 320 12.9 17.7 0.00 0.00 0.00 47 997.3
20220811200703 38 360 6.4 17.7 0.00 0.00 0.00 45 997.1
20220811200605 38 331 8.0 17.7 0.00 0.00 0.00 46 997.2
20220811200206 38 346 9.7 17.7 0.00 0.00 0.00 46 997.2
20220811200103 38 344 16.1 17.7 0.00 0.00 0.00 46 997.3
20220811200008 38 321 9.7 17.7 0.00 0.00 0.00 46 997.3
20220811195906 38 344 16.1 17.7 0.00 0.00 0.00 46 997.2
20220811195506 38 346 8.0 17.7 0.00 0.00 0.00 44 997.3
20220811195203 38 5 6.4 17.7 0.00 0.00 0.00 48 997.3
20220811195106 38 342 9.7 19.3 0.00 0.00 0.00 48 997.3
20220811195005 38 333 6.4 19.3 0.00 0.00 0.00 47 997.3
20220811194903 38 350 8.0 19.3 0.00 0.00 0.00 46 997.4
20220811194803 38 355 8.0 19.3 0.00 0.00 0.00 45 997.4
20220811194603 38 342 9.7 19.3 0.00 0.00 0.00 43 997.3
20220811194504 38 338 9.7 19.3 0.00 0.00 0.00 42 997.3
20220811194203 38 350 16.1 22.5 0.00 0.00 0.00 39 997.3
20220811194103 38 319 9.7 22.5 0.00 0.00 0.00 42 997.3
20220811194009 38 346 8.0 22.5 0.00 0.00 0.00 43 997.4
20220811193903 38 16 8.0 22.5 0.00 0.00 0.00 42 997.3
20220811193803 38 9 11.3 22.5 0.00 0.00 0.00 42 997.4
20220811193703 38 355 8.0 22.5 0.00 0.00 0.00 41 997.4
20220811193606 38 337 16.1 22.5 0.00 0.00 0.00 39 997.3
20220811193403 38 355 9.7 22.5 0.00 0.00 0.00 42 997.4
20220811193005 37 355 9.7 14.5 0.00 0.00 0.00 47 997.4
20220811192905 37 342 9.7 14.5 0.00 0.00 0.00 48 997.3
20220811192703 37 5 4.8 14.5 0.00 0.00 0.00 49 997.4
20220811192304 37 346 12.9 14.5 0.00 0.00 0.00 51 997.3
20220811192207 37 355 12.9 12.9 0.00 0.00 0.00 52 997.3
20220811192103 37 5 9.7 12.9 0.00 0.00 0.00 51 997.3
20220811191905 37 15 8.0 12.9 0.00 0.00 0.00 51 997.3
20220811191803 37 12 6.4 12.9 0.00 0.00 0.00 52 997.4
20220811191704 37 355 9.7 12.9 0.00 0.00 0.00 51 997.3
20220811191603 38 345 9.7 14.5 0.00 0.00 0.00 51 997.4
20220811191202 38 360 8.0 14.5 0.00 0.00 0.00 50 997.3
20220811191105 38 355 8.0 16.1 0.00 0.00 0.00 48 997.3
20220811191005 38 5 8.0 16.1 0.00 0.00 0.00 47 997.3
20220811190305 38 360 9.7 17.7 0.00 0.00 0.00 44 997.3
20220811190203 38 355 12.9 17.7 0.00 0.00 0.00 45 997.2
20220811190011 38 10 12.9 17.7 0.00 0.00 0.00 44 997.2
20220811185802 38 343 14.5 17.7 0.00 0.00 0.00 46 997.2
20220811185707 38 344 9.7 17.7 0.00 0.00 0.00 46 997.1
20220811185603 38 5 8.0 17.7 0.00 0.00 0.00 48 997.2
20220811185403 37 346 9.7 17.7 0.00 0.00 0.00 48 997.2
20220811185306 37 355 12.9 17.7 0.00 0.00 0.00 48 997.2
20220811185103 37 338 12.9 17.7 0.00 0.00 0.00 48 997.2
20220811185005 37 355 16.1 17.7 0.00 0.00 0.00 49 997.1
20220811184703 37 336 9.7 14.5 0.00 0.00 0.00 55 997.1
20220811184603 37 342 9.7 14.5 0.00 0.00 0.00 56 997.1
20220811184406 37 333 8.0 14.5 0.00 0.00 0.00 55 997.1
20220811184103 37 331 6.4 14.5 0.00 0.00 0.00 55 997.0
20220811184008 37 325 9.7 14.5 0.00 0.00 0.00 55 997.1
20220811183904 37 323 9.7 14.5 0.00 0.00 0.00 55 997.1
20220811183803 37 331 8.0 14.5 0.00 0.00 0.00 55 997.1
20220811183403 37 323 8.0 14.5 0.00 0.00 0.00 53 997.1
20220811183205 38 336 9.7 16.1 0.00 0.00 0.00 52 997.1
20220811183104 38 323 6.4 16.1 0.00 0.00 0.00 52 997.1
20220811183006 38 311 9.7 16.1 0.00 0.00 0.00 52 997.0
20220811182902 38 311 8.0 16.1 0.00 0.00 0.00 51 997.0
20220811182806 38 323 9.7 16.1 0.00 0.00 0.00 51 997.0
20220811182703 38 331 9.7 16.1 0.00 0.00 0.00 50 997.1
20220811182603 38 325 6.4 16.1 0.00 0.00 0.00 49 997.0
20220811182203 38 309 11.3 14.5 0.00 0.00 0.00 49 997.0
20220811182103 38 304 8.0 14.5 0.00 0.00 0.00 50 997.0
20220811182008 38 317 9.7 14.5 0.00 0.00 0.00 50 997.0
20220811181707 38 324 6.4 16.1 0.00 0.00 0.00 49 996.9
20220811181603 38 318 8.0 16.1 0.00 0.00 0.00 49 996.7
20220811181504 38 325 8.0 16.1 0.00 0.00 0.00 48 996.8
20220811181304 38 334 8.0 16.1 0.00 0.00 0.00 48 996.7
20220811180904 38 334 14.5 16.1 0.00 0.00 0.00 45 996.6
20220811180803 38 323 6.4 16.1 0.00 0.00 0.00 45 996.6
20220811180504 38 323 6.4 17.7 0.00 0.00 0.00 44 996.4
20220811180403 38 319 9.7 17.7 0.00 0.00 0.00 45 996.5
20220811180302 39 319 9.7 17.7 0.00 0.00 0.00 45 996.4
20220811180206 39 321 8.0 17.7 0.00 0.00 0.00 46 996.4
20220811180008 39 313 8.0 17.7 0.00 0.00 0.00 45 996.4
20220811175905 39 344 6.4 17.7 0.00 0.00 0.00 44 996.4
20220811175603 40 310 14.5 16.1 0.00 0.00 0.00 43 996.4
20220811175102 40 331 12.9 16.1 0.00 0.00 0.00 38 996.2
20220811175007 40 317 9.7 16.1 0.00 0.00 0.00 38 996.2
20220811174903 40 343 9.7 16.1 0.00 0.00 0.00 37 996.2
20220811174702 40 320 14.5 16.1 0.00 0.00 0.00 36 996.1
20220811174605 40 320 9.7 16.1 0.00 0.00 0.00 36 996.1
20220811174403 40 318 9.7 16.1 0.00 0.00 0.00 36 996.1
20220811174302 40 312 8.0 16.1 0.00 0.00 0.00 36 996.1
20220811174103 40 304 11.3 16.1 0.00 0.00 0.00 36 996.0
20220811173704 40 314 4.8 16.1 0.00 0.00 0.00 37 996.0
20220811173406 40 330 6.4 16.1 0.00 0.00 0.00 37 995.9
20220811173303 40 311 8.0 16.1 0.00 0.00 0.00 36 995.9
20220811173203 40 321 9.7 16.1 0.00 0.00 0.00 36 995.9
20220811173009 40 329 8.0 14.5 0.00 0.00 0.00 35 995.8
20220811172904 40 320 9.7 14.5 0.00 0.00 0.00 35 995.7
20220811172607 40 320 12.9 14.5 0.00 0.00 0.00 35 995.7
20220811172504 40 326 4.8 14.5 0.00 0.00 0.00 35 995.7
20220811172306 40 311 9.7 14.5 0.00 0.00 0.00 35 995.7
20220811172203 40 329 8.0 12.9 0.00 0.00 0.00 35 995.7
20220811172103 40 333 9.7 12.9 0.00 0.00 0.00 35 995.7
20220811172006 40 311 9.7 12.9 0.00 0.00 0.00 34 995.7
20220811171905 40 334 6.4 12.9 0.00 0.00 0.00 35 995.6
20220811171803 40 309 8.0 12.9 0.00 0.00 0.00 35 995.6
20220811171703 40 312 6.4 12.9 0.00 0.00 0.00 35 995.5
20220811171603 40 325 9.7 12.9 0.00 0.00 0.00 35 995.5
20220811171506 40 320 8.0 12.9 0.00 0.00 0.00 35 995.5
20220811171304 40 329 4.8 12.9 0.00 0.00 0.00 37 995.5
20220811170803 40 323 8.0 9.7 0.00 0.00 0.00 36 995.4
20220811170403 40 355 6.4 9.7 0.00 0.00 0.00 35 995.3
20220811170102 41 343 4.8 8.0 0.00 0.00 0.00 32 995.2
20220811165906 40 321 3.2 8.0 0.00 0.00 0.00 31 995.1
20220811165803 40 319 4.8 8.0 0.00 0.00 0.00 31 995.1
20220811165703 40 318 8.0 8.0 0.00 0.00 0.00 32 995.1
20220811165506 40 306 3.2 12.9 0.00 0.00 0.00 32 995.1
20220811165106 40 321 4.8 16.1 0.00 0.00 0.00 32 995.1
20220811164903 40 316 4.8 16.1 0.00 0.00 0.00 33 995.0
20220811164804 40 316 6.4 16.1 0.00 0.00 0.00 33 995.0
20220811164705 40 294 4.8 16.1 0.00 0.00 0.00 34 995.0
20220811164603 40 296 8.0 16.1 0.00 0.00 0.00 35 995.1
20220811164203 40 40 3.2 6.4 0.00 0.00 0.00 35 994.8
20220811164006 40 40 3.2 6.4 0.00 0.00 0.00 36 994.8
20220811163603 40 40 4.8 4.8 0.00 0.00 0.00 35 994.7
20220811163505 40 41 3.2 4.8 0.00 0.00 0.00 35 994.7
20220811163305 40 41 3.2 4.8 0.00 0.00 0.00 35 994.6
20220811163007 40 41 4.8 4.8 0.00 0.00 0.00 35 994.6
20220811162803 40 41 3.2 6.4 0.00 0.00 0.00 35 994.5
20220811162602 40 41 3.2 6.4 0.00 0.00 0.00 37 994.5
20220811162506 40 41 1.6 6.4 0.00 0.00 0.00 37 994.5
20220811162404 40 41 1.6 6.4 0.00 0.00 0.00 36 994.6
20220811162305 40 41 3.2 6.4 0.00 0.00 0.00 36 994.5
20220811162005 39 41 4.8 4.8 0.00 0.00 0.00 37 994.4
20220811161903 39 42 3.2 4.8 0.00 0.00 0.00 37 994.4
20220811161803 39 42 4.8 4.8 0.00 0.00 0.00 37 994.4
20220811161705 39 42 3.2 4.8 0.00 0.00 0.00 38 994.4
20220811160905 39 42 3.2 4.8 0.00 0.00 0.00 39 994.4
20220811160804 40 42 3.2 3.2 0.00 0.00 0.00 39 994.3
20220811160507 40 42 1.6 3.2 0.00 0.00 0.00 39 994.3
20220811160010 40 42 0.0 4.8 0.00 0.00 0.00 39 994.3
20220811155702 39 42 1.6 4.8 0.00 0.00 0.00 39 994.2
20220811155606 40 42 1.6 4.8 0.00 0.00 0.00 39 994.2
20220811155504 40 42 1.6 4.8 0.00 0.00 0.00 38 994.2
20220811155402 39 42 1.6 4.8 0.00 0.00 0.00 38 994.3
20220811155310 40 42 3.2 4.8 0.00 0.00 0.00 39 994.2
20220811155203 40 42 1.6 4.8 0.00 0.00 0.00 39 994.2
20220811155103 40 42 1.6 4.8 0.00 0.00 0.00 39 994.2
20220811154603 40 43 3.2 4.8 0.00 0.00 0.00 41 994.1
20220811154303 40 44 3.2 4.8 0.00 0.00 0.00 39 994.0
20220811154105 40 44 3.2 4.8 0.00 0.00 0.00 38 994.0
20220811153904 40 44 1.6 4.8 0.00 0.00 0.00 39 994.1
20220811153802 40 44 1.6 4.8 0.00 0.00 0.00 39 994.0
20220811153707 40 44 1.6 4.8 0.00 0.00 0.00 38 994.1
20220811153602 40 44 3.2 4.8 0.00 0.00 0.00 37 994.1
20220811153504 40 44 3.2 4.8 0.00 0.00 0.00 36 994.0
20220811153008 40 44 3.2 4.8 0.00 0.00 0.00 37 993.9
20220811152703 40 44 1.6 4.8 0.00 0.00 0.00 38 994.0
20220811152305 40 45 4.8 4.8 0.00 0.00 0.00 40 993.9
20220811152005 41 46 4.8 4.8 0.00 0.00 0.00 40 993.9
20220811151505 41 46 1.6 8.0 0.00 0.00 0.00 38 993.8
20220811151402 41 47 3.2 8.0 0.00 0.00 0.00 38 993.8
20220811151008 41 50 6.4 8.0 0.00 0.00 0.00 33 993.7
20220811150803 41 55 3.2 6.4 0.00 0.00 0.00 34 993.7
20220811150703 41 55 3.2 6.4 0.00 0.00 0.00 34 993.7
20220811150605 41 55 3.2 6.4 0.00 0.00 0.00 35 993.8
20220811150504 41 57 0.0 6.4 0.00 0.00 0.00 32 993.7
20220811150008 41 36 3.2 6.4 0.00 0.00 0.00 37 993.7
20220811145803 41 30 1.6 6.4 0.00 0.00 0.00 39 993.6
20220811145703 41 30 1.6 6.4 0.00 0.00 0.00 39 993.7
20220811145603 41 30 1.6 6.4 0.00 0.00 0.00 39 993.7
20220811145506 41 30 1.6 6.4 0.00 0.00 0.00 38 993.7
20220811145402 41 30 0.0 6.4 0.00 0.00 0.00 36 993.7
20220811145203 41 28 4.8 6.4 0.00 0.00 0.00 37 993.7
20220811145105 41 25 1.6 6.4 0.00 0.00 0.00 38 993.7
20220811145005 41 27 3.2 6.4 0.00 0.00 0.00 35 993.7
20220811144802 41 28 3.2 6.4 0.00 0.00 0.00 38 993.7
20220811144603 41 27 4.8 6.4 0.00 0.00 0.00 36 993.7
20220811144506 41 29 4.8 6.4 0.00 0.00 0.00 35 993.7
20220811144204 41 28 3.2 6.4 0.00 0.00 0.00 37 993.7
20220811144005 41 26 4.8 6.4 0.00 0.00 0.00 36 993.7
20220811143702 42 28 3.2 6.4 0.00 0.00 0.00 37 993.5
20220811143503 42 31 4.8 6.4 0.00 0.00 0.00 34 993.6
20220811143305 42 36 3.2 8.0 0.00 0.00 0.00 33 993.5
20220811143008 41 38 4.8 8.0 0.00 0.00 0.00 32 993.5
20220811142602 41 38 1.6 8.0 0.00 0.00 0.00 33 993.6
20220811142504 41 33 4.8 8.0 0.00 0.00 0.00 34 993.5
20220811142403 41 31 4.8 8.0 0.00 0.00 0.00 35 993.5
20220811142203 41 33 6.4 8.0 0.00 0.00 0.00 37 993.5
20220811142102 41 33 1.6 8.0 0.00 0.00 0.00 37 993.5
20220811141705 42 33 4.8 8.0 0.00 0.00 0.00 37 993.6
20220811141403 42 37 6.4 6.4 0.00 0.00 0.00 33 993.5
20220811141303 42 38 4.8 9.7 0.00 0.00 0.00 33 993.5
20220811141203 42 42 1.6 9.7 0.00 0.00 0.00 36 993.5
20220811141111 42 42 1.6 9.7 0.00 0.00 0.00 36 993.4
20220811141007 42 42 1.6 9.7 0.00 0.00 0.00 36 993.5
20220811140603 42 59 3.2 9.7 0.00 0.00 0.00 29 993.5
20220811140506 42 64 9.7 9.7 0.00 0.00 0.00 29 993.4
20220811140406 42 44 4.8 8.0 0.00 0.00 0.00 30 993.5
20220811140303 42 47 6.4 8.0 0.00 0.00 0.00 29 993.5
20220811140203 42 53 3.2 8.0 0.00 0.00 0.00 29 993.5
20220811140103 42 57 6.4 6.4 0.00 0.00 0.00 30 993.5
20220811140009 42 58 3.2 6.4 0.00 0.00 0.00 30 993.4
20220811135805 42 54 3.2 6.4 0.00 0.00 0.00 31 993.4
20220811135504 42 49 0.0 4.8 0.00 0.00 0.00 36 993.5
20220811135403 42 49 1.6 4.8 0.00 0.00 0.00 38 993.5
20220811135305 42 49 0.0 4.8 0.00 0.00 0.00 36 993.5
20220811134602 42 47 3.2 6.4 0.00 0.00 0.00 40 993.6
20220811134507 42 46 3.2 6.4 0.00 0.00 0.00 40 993.5
20220811134402 42 45 1.6 6.4 0.00 0.00 0.00 40 993.4
20220811134305 42 45 4.8 6.4 0.00 0.00 0.00 40 993.5
20220811133705 43 40 1.6 8.0 0.00 0.00 0.00 33 993.5
20220811132603 43 51 4.8 14.5 0.00 0.00 0.00 26 993.5
20220811132403 43 15 11.3 16.1 0.00 0.00 0.00 26 993.6
20220811132204 43 47 8.0 16.1 0.00 0.00 0.00 26 993.5
20220811132005 43 44 8.0 16.1 0.00 0.00 0.00 26 993.5
20220811131505 43 55 8.0 17.7 0.00 0.00 0.00 26 993.5
20220811131310 42 49 8.0 17.7 0.00 0.00 0.00 27 993.5
20220811131107 42 59 9.7 17.7 0.00 0.00 0.00 27 993.6
20220811131003 42 67 9.7 17.7 0.00 0.00 0.00 27 993.5
20220811130911 42 46 11.3 17.7 0.00 0.00 0.00 28 993.6
20220811130506 42 66 14.5 17.7 0.00 0.00 0.00 31 993.6
20220811130404 42 72 8.0 16.1 0.00 0.00 0.00 30 993.6
20220811130305 42 55 4.8 16.1 0.00 0.00 0.00 31 993.6
20220811130202 42 62 6.4 16.1 0.00 0.00 0.00 31 993.6
20220811130009 41 48 9.7 16.1 0.00 0.00 0.00 32 993.6
20220811125804 42 67 9.7 16.1 0.00 0.00 0.00 31 993.6
20220811125601 42 51 6.4 16.1 0.00 0.00 0.00 31 993.6
20220811125505 42 48 8.0 16.1 0.00 0.00 0.00 32 993.7
20220811125402 42 64 3.2 16.1 0.00 0.00 0.00 32 993.6
20220811125203 42 50 8.0 16.1 0.00 0.00 0.00 31 993.7
20220811124903 42 55 3.2 16.1 0.00 0.00 0.00 31 993.7
20220811124804 42 29 9.7 16.1 0.00 0.00 0.00 30 993.7
20220811124702 42 51 6.4 16.1 0.00 0.00 0.00 31 993.7
20220811124607 42 25 6.4 16.1 0.00 0.00 0.00 31 993.6
20220811124401 42 44 3.2 16.1 0.00 0.00 0.00 31 993.7
20220811124006 42 36 8.0 16.1 0.00 0.00 0.00 31 993.7
20220811123908 41 57 8.0 16.1 0.00 0.00 0.00 31 993.7
20220811123804 41 61 4.8 16.1 0.00 0.00 0.00 32 993.8
20220811123608 41 51 8.0 16.1 0.00 0.00 0.00 32 993.8
20220811123505 41 52 9.7 16.1 0.00 0.00 0.00 31 993.8
20220811123413 41 65 6.4 14.5 0.00 0.00 0.00 34 993.8
20220811123102 41 56 9.7 14.5 0.00 0.00 0.00 34 993.8
20220811123002 41 38 4.8 14.5 0.00 0.00 0.00 35 993.9
20220811122803 41 49 11.3 16.1 0.00 0.00 0.00 35 993.9
20220811122701 41 29 12.9 16.1 0.00 0.00 0.00 37 993.9
20220811122614 41 52 6.4 16.1 0.00 0.00 0.00 37 993.9
20220811122402 41 57 3.2 16.1 0.00 0.00 0.00 38 993.9
20220811122304 41 47 6.4 16.1 0.00 0.00 0.00 38 993.9
20220811122210 41 65 8.0 16.1 0.00 0.00 0.00 37 993.9
20220811122004 41 59 11.3 16.1 0.00 0.00 0.00 36 994.0
20220811121907 41 86 12.9 16.1 0.00 0.00 0.00 36 993.9
20220811121804 41 61 16.1 16.1 0.00 0.00 0.00 38 994.0
20220811121703 41 51 4.8 16.1 0.00 0.00 0.00 38 994.0
20220811121645 41 53 6.4 16.1 0.00 0.00 0.00 38 994.0
20220811121108 42 24 6.4 11.3 0.00 0.00 0.00 36 993.9
20220811120602 42 31 8.0 12.9 0.00 0.00 0.00 34 993.9
20220811120513 42 39 9.7 12.9 0.00 0.00 0.00 34 993.9
20220811120409 42 34 4.8 12.9 0.00 0.00 0.00 33 993.9
20220811120011 42 30 9.7 12.9 0.00 0.00 0.00 31 993.9
20220811115903 42 38 3.2 12.9 0.00 0.00 0.00 32 993.9
20220811115602 42 28 6.4 14.5 0.00 0.00 0.00 31 993.9
20220811114704 42 44 8.0 11.3 0.00 0.00 0.00 30 993.9
20220811114607 42 26 8.0 11.3 0.00 0.00 0.00 29 993.8
20220811114503 42 65 9.7 11.3 0.00 0.00 0.00 29 993.8
20220811114404 42 53 4.8 11.3 0.00 0.00 0.00 30 993.8
20220811114304 42 15 3.2 14.5 0.00 0.00 0.00 31 993.9
20220811114102 42 53 3.2 14.5 0.00 0.00 0.00 30 993.9
20220811113302 42 53 4.8 12.9 0.00 0.00 0.00 32 993.9
20220811113205 42 26 9.7 12.9 0.00 0.00 0.00 31 993.9
20220811113018 42 68 6.4 12.9 0.00 0.00 0.00 32 993.9
20220811112406 42 26 6.4 8.0 0.00 0.00 0.00 37 993.9
20220811112110 42 55 3.2 9.7 0.00 0.00 0.00 36 994.0
20220811112025 42 65 6.4 9.7 0.00 0.00 0.00 38 994.0
20220811111612 42 24 3.2 12.9 0.00 0.00 0.00 37 994.0
20220811111404 42 43 6.4 12.9 0.00 0.00 0.00 37 994.0
20220811111311 42 65 6.4 12.9 0.00 0.00 0.00 36 994.0
20220811111003 42 5 8.0 12.9 0.00 0.00 0.00 34 994.0
20220811110702 43 360 8.0 12.9 0.00 0.00 0.00 33 994.1
20220811110603 43 355 6.4 8.0 0.00 0.00 0.00 32 994.1
20220811110402 43 346 3.2 8.0 0.00 0.00 0.00 33 994.1
20220811110202 43 346 3.2 8.0 0.00 0.00 0.00 33 994.1
20220811110105 43 340 3.2 8.0 0.00 0.00 0.00 33 994.1
20220811110006 43 339 6.4 8.0 0.00 0.00 0.00 33 994.1
20220811105804 42 350 1.6 8.0 0.00 0.00 0.00 34 994.1
20220811105702 42 350 4.8 8.0 0.00 0.00 0.00 33 994.1
20220811105506 42 355 4.8 8.0 0.00 0.00 0.00 33 994.1
20220811105403 42 355 4.8 8.0 0.00 0.00 0.00 34 994.1
20220811104702 42 347 1.6 9.7 0.00 0.00 0.00 35 994.2
20220811104602 42 345 4.8 9.7 0.00 0.00 0.00 35 994.2
20220811104502 42 327 4.8 9.7 0.00 0.00 0.00 35 994.2
20220811104206 42 321 3.2 9.7 0.00 0.00 0.00 35 994.2
20220811104102 42 319 6.4 9.7 0.00 0.00 0.00 35 994.3
20220811103806 42 331 8.0 9.7 0.00 0.00 0.00 35 994.3
20220811103701 42 336 3.2 9.7 0.00 0.00 0.00 36 994.3
20220811103601 42 325 4.8 9.7 0.00 0.00 0.00 35 994.3
20220811103505 41 323 4.8 9.7 0.00 0.00 0.00 36 994.3
20220811103402 41 319 1.6 9.7 0.00 0.00 0.00 36 994.4
20220811103301 41 317 8.0 9.7 0.00 0.00 0.00 36 994.3
20220811102801 42 321 9.7 9.7 0.00 0.00 0.00 35 994.4
20220811102601 42 327 1.6 9.7 0.00 0.00 0.00 35 994.4
20220811102503 42 334 4.8 9.7 0.00 0.00 0.00 36 994.4
20220811102402 42 336 1.6 14.5 0.00 0.00 0.00 36 994.5
20220811102305 42 340 8.0 14.5 0.00 0.00 0.00 36 994.5
20220811102201 41 345 3.2 14.5 0.00 0.00 0.00 37 994.5
20220811101901 41 329 6.4 14.5 0.00 0.00 0.00 37 994.5
20220811101701 41 327 3.2 14.5 0.00 0.00 0.00 37 994.7
20220811101604 41 312 9.7 14.5 0.00 0.00 0.00 36 994.7
20220811101502 41 312 8.0 14.5 0.00 0.00 0.00 37 994.7
20220811101301 41 319 9.7 14.5 0.00 0.00 0.00 37 994.7
20220811101205 41 321 9.7 14.5 0.00 0.00 0.00 37 994.8
20220811101101 41 326 12.9 14.5 0.00 0.00 0.00 36 994.8
20220811101003 41 323 14.5 14.5 0.00 0.00 0.00 37 994.8
20220811100906 41 344 4.8 14.5 0.00 0.00 0.00 37 994.8
20220811100801 41 338 9.7 14.5 0.00 0.00 0.00 36 994.8
20220811100701 41 312 9.7 14.5 0.00 0.00 0.00 37 994.8
20220811100601 41 318 6.4 14.5 0.00 0.00 0.00 37 994.8
20220811100301 41 318 12.9 14.5 0.00 0.00 0.00 37 994.9
20220811100202 41 338 6.4 14.5 0.00 0.00 0.00 38 995.0
20220811095901 40 316 9.7 14.5 0.00 0.00 0.00 37 994.9
20220811095804 40 319 12.9 14.5 0.00 0.00 0.00 37 995.0
20220811095703 41 324 12.9 12.9 0.00 0.00 0.00 38 995.0
20220811095502 41 312 12.9 14.5 0.00 0.00 0.00 38 995.0
20220811095407 41 312 8.0 14.5 0.00 0.00 0.00 39 995.1
20220811095302 41 333 9.7 16.1 0.00 0.00 0.00 39 995.1
20220811095203 40 313 4.8 16.1 0.00 0.00 0.00 39 995.1
20220811095101 40 304 6.4 16.1 0.00 0.00 0.00 38 995.1
20220811094901 40 326 12.9 16.1 0.00 0.00 0.00 40 995.1
20220811094301 40 339 8.0 14.5 0.00 0.00 0.00 43 995.2
20220811094101 40 332 9.7 14.5 0.00 0.00 0.00 43 995.3
20220811093801 40 323 4.8 14.5 0.00 0.00 0.00 47 995.3
20220811093702 40 330 4.8 14.5 0.00 0.00 0.00 48 995.3
20220811093506 39 344 9.7 14.5 0.00 0.00 0.00 50 995.4
20220811093302 39 344 4.8 16.1 0.00 0.00 0.00 51 995.4
20220811093104 39 332 9.7 16.1 0.00 0.00 0.00 50 995.5
20220811093003 39 326 9.7 20.9 0.00 0.00 0.00 51 995.5
20220811092901 39 323 8.0 20.9 0.00 0.00 0.00 51 995.5
20220811092602 39 350 8.0 20.9 0.00 0.00 0.00 51 995.6
20220811092502 39 355 6.4 20.9 0.00 0.00 0.00 50 995.6
20220811092401 39 337 6.4 20.9 0.00 0.00 0.00 49 995.6
20220811092305 38 355 8.0 20.9 0.00 0.00 0.00 48 995.7
20220811092201 38 338 12.9 20.9 0.00 0.00 0.00 47 995.6
20220811092101 38 342 12.9 20.9 0.00 0.00 0.00 47 995.8
20220811092004 38 355 9.7 20.9 0.00 0.00 0.00 49 995.8
20220811091803 38 298 6.4 16.1 0.00 0.00 0.00 53 995.7
20220811091602 39 315 12.9 17.7 0.00 0.00 0.00 53 995.8
20220811091403 38 327 6.4 17.7 0.00 0.00 0.00 52 995.7
20220811091301 38 323 9.7 19.3 0.00 0.00 0.00 52 995.7
20220811091205 38 313 12.9 19.3 0.00 0.00 0.00 51 995.8
20220811091003 38 350 8.0 19.3 0.00 0.00 0.00 52 995.6
20220811090903 38 317 12.9 19.3 0.00 0.00 0.00 52 995.7
20220811090806 38 318 8.0 19.3 0.00 0.00 0.00 50 995.7
20220811090301 38 317 8.0 20.9 0.00 0.00 0.00 48 995.7
20220811090101 38 317 14.5 20.9 0.00 0.00 0.00 49 995.8
20220811090010 38 327 12.9 20.9 0.00 0.00 0.00 49 995.8
20220811085901 38 318 16.1 20.9 0.00 0.00 0.00 49 995.8
20220811085801 38 311 17.7 20.9 0.00 0.00 0.00 49 995.8
20220811085503 39 321 16.1 19.3 0.00 0.00 0.00 50 995.8
20220811085401 39 308 16.1 19.3 0.00 0.00 0.00 49 995.9
20220811085304 38 312 8.0 19.3 0.00 0.00 0.00 50 995.8
20220811085103 38 355 9.7 20.9 0.00 0.00 0.00 49 995.8
20220811085003 38 334 9.7 20.9 0.00 0.00 0.00 50 995.9
20220811084503 38 342 6.4 22.5 0.00 0.00 0.00 47 995.8
20220811084403 38 334 12.9 22.5 0.00 0.00 0.00 47 995.9
20220811084204 38 339 4.8 22.5 0.00 0.00 0.00 47 995.9
20220811084101 38 338 16.1 22.5 0.00 0.00 0.00 47 996.0
20220811084004 38 341 19.3 20.9 0.00 0.00 0.00 47 995.9
20220811083402 38 336 9.7 20.9 0.00 0.00 0.00 46 996.1
20220811083301 38 347 12.9 24.1 0.00 0.00 0.00 47 996.1
20220811083204 38 355 12.9 27.4 0.00 0.00 0.00 48 996.1
20220811083003 38 331 6.4 27.4 0.00 0.00 0.00 48 996.2
20220811082902 38 314 8.0 27.4 0.00 0.00 0.00 48 996.1
20220811082602 38 311 14.5 27.4 0.00 0.00 0.00 47 996.1
20220811082405 39 314 19.3 27.4 0.00 0.00 0.00 46 996.2
20220811082201 38 327 14.5 24.1 0.00 0.00 0.00 44 996.3
20220811081901 38 340 6.4 27.4 0.00 0.00 0.00 46 996.3
20220811081801 38 320 9.7 27.4 0.00 0.00 0.00 46 996.3
20220811081402 38 338 20.9 27.4 0.00 0.00 0.00 46 996.3
20220811081204 38 309 17.7 27.4 0.00 0.00 0.00 46 996.3
20220811081005 38 315 19.3 27.4 0.00 0.00 0.00 45 996.4
20220811080908 38 343 16.1 27.4 0.00 0.00 0.00 46 996.4
20220811080801 38 317 19.3 25.7 0.00 0.00 0.00 45 996.4
20220811080703 38 323 24.1 25.7 0.00 0.00 0.00 45 996.4
20220811080505 38 323 22.5 25.7 0.00 0.00 0.00 45 996.4
20220811080401 38 325 22.5 25.7 0.00 0.00 0.00 43 996.4
20220811080104 38 329 12.9 25.7 0.00 0.00 0.00 42 996.5
20220811080006 38 330 16.1 25.7 0.00 0.00 0.00 42 996.4
20220811075901 38 319 17.7 25.7 0.00 0.00 0.00 42 996.4
20220811075804 38 306 19.3 25.7 0.00 0.00 0.00 42 996.5
20220811075701 38 299 22.5 25.7 0.00 0.00 0.00 43 996.5
20220811075304 38 304 14.5 25.7 0.00 0.00 0.00 40 996.6
20220811075201 38 328 9.7 25.7 0.00 0.00 0.00 39 996.5
20220811074902 38 314 16.1 29.0 0.00 0.00 0.00 40 996.6
20220811074601 38 313 19.3 29.0 0.00 0.00 0.00 39 996.7
20220811074502 38 320 14.5 29.0 0.00 0.00 0.00 39 996.6
20220811074401 38 327 19.3 29.0 0.00 0.00 0.00 38 996.7
20220811074304 38 311 24.1 29.0 0.00 0.00 0.00 37 996.7
20220811074101 38 317 17.7 27.4 0.00 0.00 0.00 39 996.8
20220811074003 38 320 17.7 27.4 0.00 0.00 0.00 39 996.7
20220811073701 38 317 14.5 27.4 0.00 0.00 0.00 37 996.7
20220811073505 38 331 19.3 27.4 0.00 0.00 0.00 35 996.7
20220811073401 38 319 24.1 27.4 0.00 0.00 0.00 34 996.7
20220811073302 38 331 20.9 27.4 0.00 0.00 0.00 34 996.8
20220811073201 38 334 19.3 27.4 0.00 0.00 0.00 35 996.8
20220811073104 38 324 22.5 27.4 0.00 0.00 0.00 35 996.8
20220811073003 38 318 14.5 27.4 0.00 0.00 0.00 36 996.8
20220811072901 38 325 17.7 25.7 0.00 0.00 0.00 36 996.8
20220811072602 38 323 14.5 25.7 0.00 0.00 0.00 37 996.9
20220811072501 38 316 14.5 25.7 0.00 0.00 0.00 38 996.9
20220811072204 38 330 14.5 29.0 0.00 0.00 0.00 36 996.9
20220811071903 38 323 19.3 30.6 0.00 0.00 0.00 36 997.0
20220811071701 38 327 17.7 30.6 0.00 0.00 0.00 34 997.0
20220811071506 38 328 14.5 30.6 0.00 0.00 0.00 34 997.1
20220811071201 38 325 19.3 30.6 0.00 0.00 0.00 33 997.0
20220811071007 38 311 25.7 35.4 0.00 0.00 0.00 33 997.0
20220811070901 38 315 14.5 35.4 0.00 0.00 0.00 33 997.0
20220811070801 38 325 20.9 35.4 0.00 0.00 0.00 34 997.0
20220811070706 38 315 14.5 35.4 0.00 0.00 0.00 33 997.0
20220811070404 38 309 20.9 35.4 0.00 0.00 0.00 32 997.1
20220811070201 38 298 30.6 33.8 0.00 0.00 0.00 32 997.0
20220811065901 38 333 24.1 29.0 0.00 0.00 0.00 35 997.0
20220811065802 38 331 19.3 29.0 0.00 0.00 0.00 35 997.0
20220811065305 38 327 22.5 32.2 0.00 0.00 0.00 34 997.1
20220811065201 38 321 17.7 32.2 0.00 0.00 0.00 34 997.1
20220811064801 38 322 19.3 30.6 0.00 0.00 0.00 34 997.2
20220811064505 38 297 11.3 32.2 0.00 0.00 0.00 32 997.2
20220811064401 37 313 22.5 32.2 0.00 0.00 0.00 33 997.2
20220811064105 37 318 17.7 32.2 0.00 0.00 0.00 36 997.3
20220811063704 37 321 16.1 32.2 0.00 0.00 0.00 37 997.3
20220811063405 37 323 17.7 32.2 0.00 0.00 0.00 37 997.2
20220811063201 37 333 20.9 30.6 0.00 0.00 0.00 37 997.3
20220811063005 37 328 20.9 35.4 0.00 0.00 0.00 37 997.3
20220811062901 37 340 17.7 35.4 0.00 0.00 0.00 34 997.3
20220811062801 37 283 17.7 35.4 0.00 0.00 0.00 36 997.4
20220811062706 37 319 9.7 35.4 0.00 0.00 0.00 38 997.3
20220811062601 37 333 8.0 35.4 0.00 0.00 0.00 38 997.3
20220811062502 37 304 11.3 35.4 0.00 0.00 0.00 36 997.3
20220811062201 37 304 17.7 35.4 0.00 0.00 0.00 37 997.3
20220811062003 37 336 17.7 29.0 0.00 0.00 0.00 39 997.3
20220811061903 37 323 9.7 29.0 0.00 0.00 0.00 38 997.3
20220811061801 37 355 17.7 29.0 0.00 0.00 0.00 38 997.3
20220811061701 37 308 11.3 30.6 0.00 0.00 0.00 36 997.3
20220811061601 37 336 9.7 30.6 0.00 0.00 0.00 35 997.4
20220811061401 37 331 14.5 30.6 0.00 0.00 0.00 36 997.4
20220811061301 37 311 24.1 35.4 0.00 0.00 0.00 36 997.4
20220811061204 37 329 25.7 35.4 0.00 0.00 0.00 35 997.4
20220811060901 37 324 25.7 35.4 0.00 0.00 0.00 35 997.4
20220811060701 37 306 19.3 35.4 0.00 0.00 0.00 37 997.3
20220811060501 37 294 27.4 35.4 0.00 0.00 0.00 37 997.3
20220811060404 37 319 14.5 30.6 0.00 0.00 0.00 35 997.3
20220811060301 37 318 20.9 30.6 0.00 0.00 0.00 35 997.4
20220811060201 37 355 14.5 29.0 0.00 0.00 0.00 37 997.4
20220811060103 37 331 14.5 29.0 0.00 0.00 0.00 36 997.5
20220811055901 37 345 24.1 29.0 0.00 0.00 0.00 36 997.5
20220811055502 37 325 17.7 29.0 0.00 0.00 0.00 36 997.4
20220811055405 37 313 6.4 29.0 0.00 0.00 0.00 35 997.4
20220811055003 36 315 17.7 29.0 0.00 0.00 0.00 39 997.4
20220811054901 36 339 8.0 29.0 0.00 0.00 0.00 39 997.4
20220811054801 36 323 17.7 29.0 0.00 0.00 0.00 39 997.4
20220811054601 36 323 14.5 29.0 0.00 0.00 0.00 41 997.5
20220811054101 36 329 9.7 30.6 0.00 0.00 0.00 37 997.4
20220811054008 36 318 22.5 30.6 0.00 0.00 0.00 38 997.5
20220811053901 36 349 17.7 30.6 0.00 0.00 0.00 38 997.4
20220811053703 36 323 16.1 30.6 0.00 0.00 0.00 39 997.4
20220811053301 36 302 20.9 25.7 0.00 0.00 0.00 40 997.5
20220811053204 36 294 16.1 27.4 0.00 0.00 0.00 40 997.5
20220811053103 36 294 12.9 27.4 0.00 0.00 0.00 40 997.5
20220811052901 36 346 16.1 27.4 0.00 0.00 0.00 38 997.4
20220811052806 36 298 14.5 27.4 0.00 0.00 0.00 41 997.5
20220811052701 36 338 20.9 27.4 0.00 0.00 0.00 38 997.5
20220811052504 36 344 8.0 27.4 0.00 0.00 0.00 37 997.4
20220811052401 36 306 22.5 27.4 0.00 0.00 0.00 38 997.5
20220811052301 36 312 19.3 27.4 0.00 0.00 0.00 36 997.4
20220811052201 36 325 17.7 27.4 0.00 0.00 0.00 38 997.4
20220811052005 36 322 22.5 25.7 0.00 0.00 0.00 35 997.5
20220811051805 36 298 20.9 25.7 0.00 0.00 0.00 34 997.4
20220811051702 36 304 16.1 25.7 0.00 0.00 0.00 36 997.4
20220811051601 36 323 8.0 20.9 0.00 0.00 0.00 35 997.4
20220811051405 36 336 16.1 20.9 0.00 0.00 0.00 36 997.3
20220811051203 36 312 6.4 20.9 0.00 0.00 0.00 35 997.3
20220811050804 36 360 9.7 20.9 0.00 0.00 0.00 36 997.2
20220811050701 36 355 9.7 20.9 0.00 0.00 0.00 35 997.2
20220811050601 36 284 12.9 25.7 0.00 0.00 0.00 35 997.3
20220811050503 36 304 16.1 25.7 0.00 0.00 0.00 34 997.3
20220811050405 36 293 17.7 25.7 0.00 0.00 0.00 34 997.2
20220811050102 36 324 14.5 25.7 0.00 0.00 0.00 35 997.2
20220811050011 36 325 20.9 25.7 0.00 0.00 0.00 34 997.2
20220811045701 36 332 12.9 24.1 0.00 0.00 0.00 35 997.2
20220811045606 36 319 8.0 24.1 0.00 0.00 0.00 36 997.2
20220811045501 36 335 9.7 24.1 0.00 0.00 0.00 34 997.1
20220811045003 36 268 6.4 22.5 0.00 0.00 0.00 36 997.2
20220811044901 36 321 12.9 25.7 0.00 0.00 0.00 35 997.2
20220811044701 36 338 9.7 25.7 0.00 0.00 0.00 35 997.1
20220811044301 36 293 22.5 25.7 0.00 0.00 0.00 34 997.1
20220811044202 36 307 11.3 25.7 0.00 0.00 0.00 35 997.1
20220811043801 36 313 19.3 22.5 0.00 0.00 0.00 35 997.1
20220811043702 36 328 6.4 22.5 0.00 0.00 0.00 35 997.1
20220811042704 36 348 12.9 29.0 0.00 0.00 0.00 34 997.2
20220811042601 36 287 19.3 29.0 0.00 0.00 0.00 34 997.1
20220811042305 36 302 19.3 29.0 0.00 0.00 0.00 34 997.1
20220811042003 36 332 8.0 24.1 0.00 0.00 0.00 34 997.1
20220811041801 36 296 11.3 24.1 0.00 0.00 0.00 34 997.2
20220811041701 36 257 16.1 27.4 0.00 0.00 0.00 34 997.2
20220811041601 36 292 8.0 27.4 0.00 0.00 0.00 34 997.2
20220811041506 36 302 14.5 27.4 0.00 0.00 0.00 34 997.2
20220811041401 36 299 19.3 27.4 0.00 0.00 0.00 34 997.2
20220811041303 36 336 14.5 27.4 0.00 0.00 0.00 34 997.1
20220811041202 36 309 8.0 27.4 0.00 0.00 0.00 34 997.2
20220811041104 36 306 14.5 27.4 0.00 0.00 0.00 34 997.2
20220811040901 36 309 12.9 27.4 0.00 0.00 0.00 34 997.2
20220811040801 36 298 19.3 24.1 0.00 0.00 0.00 34 997.2
20220811040603 36 271 14.5 24.1 0.00 0.00 0.00 34 997.2
20220811040501 36 313 16.1 24.1 0.00 0.00 0.00 34 997.2
20220811040101 36 290 8.0 29.0 0.00 0.00 0.00 35 997.3
20220811040010 36 299 4.8 29.0 0.00 0.00 0.00 35 997.2
20220811035801 35 299 16.1 29.0 0.00 0.00 0.00 35 997.2
20220811035703 36 330 8.0 29.0 0.00 0.00 0.00 35 997.2
20220811035501 36 307 17.7 29.0 0.00 0.00 0.00 35 997.1
20220811035202 35 315 9.7 27.4 0.00 0.00 0.00 35 997.2
20220811034803 35 296 20.9 30.6 0.00 0.00 0.00 35 997.2
20220811034702 35 297 14.5 30.6 0.00 0.00 0.00 35 997.2
20220811034506 35 302 19.3 30.6 0.00 0.00 0.00 36 997.2
20220811034401 35 298 6.4 30.6 0.00 0.00 0.00 36 997.2
20220811034205 35 295 22.5 30.6 0.00 0.00 0.00 35 997.2
20220811034002 35 255 17.7 30.6 0.00 0.00 0.00 35 997.3
20220811033904 35 284 16.1 22.5 0.00 0.00 0.00 36 997.3
20220811033801 35 304 14.5 22.5 0.00 0.00 0.00 36 997.2
20220811033505 35 272 19.3 22.5 0.00 0.00 0.00 36 997.3
20220811033401 35 315 6.4 22.5 0.00 0.00 0.00 36 997.2
20220811033006 35 314 4.8 19.3 0.00 0.00 0.00 36 997.2
20220811032706 35 326 8.0 22.5 0.00 0.00 0.00 36 997.2
20220811032501 35 284 9.7 22.5 0.00 0.00 0.00 36 997.2
20220811032301 35 306 12.9 22.5 0.00 0.00 0.00 36 997.2
20220811032201 35 311 8.0 22.5 0.00 0.00 0.00 36 997.2
20220811032101 35 317 12.9 22.5 0.00 0.00 0.00 36 997.1
20220811032009 35 302 19.3 22.5 0.00 0.00 0.00 36 997.2
20220811031901 35 306 4.8 19.3 0.00 0.00 0.00 36 997.1
20220811031803 35 322 6.4 19.3 0.00 0.00 0.00 36 997.2
20220811031401 35 286 6.4 25.7 0.00 0.00 0.00 35 997.2
20220811031303 35 303 6.4 25.7 0.00 0.00 0.00 35 997.2
20220811031101 35 296 6.4 25.7 0.00 0.00 0.00 35 997.2
20220811031006 35 284 11.3 25.7 0.00 0.00 0.00 35 997.1
20220811030801 35 304 3.2 24.1 0.00 0.00 0.00 35 997.1
20220811030502 35 313 12.9 24.1 0.00 0.00 0.00 35 997.1
20220811030301 35 295 14.5 24.1 0.00 0.00 0.00 34 997.0
20220811025904 35 281 17.7 25.7 0.00 0.00 0.00 34 997.0
20220811025605 35 304 19.3 30.6 0.00 0.00 0.00 35 997.0
20220811025504 35 315 9.7 30.6 0.00 0.00 0.00 34 997.0
20220811025104 35 311 8.0 30.6 0.00 0.00 0.00 34 996.9
20220811024803 35 308 11.3 25.7 0.00 0.00 0.00 34 997.0
20220811024704 35 298 6.4 25.7 0.00 0.00 0.00 34 997.0
20220811024402 35 327 6.4 25.7 0.00 0.00 0.00 34 996.9
20220811024104 35 331 12.9 22.5 0.00 0.00 0.00 34 996.9
20220811024008 35 306 14.5 22.5 0.00 0.00 0.00 34 996.9
20220811023901 35 314 8.0 22.5 0.00 0.00 0.00 34 996.9
20220811023502 35 306 8.0 22.5 0.00 0.00 0.00 34 996.9
20220811023201 35 267 14.5 25.7 0.00 0.00 0.00 35 996.8
20220811023105 35 305 22.5 25.7 0.00 0.00 0.00 35 996.8
20220811022904 35 334 9.7 25.7 0.00 0.00 0.00 35 996.8
20220811022701 35 324 9.7 25.7 0.00 0.00 0.00 34 996.7
20220811022601 35 286 14.5 25.7 0.00 0.00 0.00 35 996.7
20220811022401 35 306 16.1 24.1 0.00 0.00 0.00 35 996.7
20220811022304 35 299 8.0 24.1 0.00 0.00 0.00 35 996.7
20220811022202 35 326 12.9 24.1 0.00 0.00 0.00 34 996.8
20220811021801 36 254 17.7 29.0 0.00 0.00 0.00 35 996.6
20220811021703 36 313 12.9 29.0 0.00 0.00 0.00 34 996.6
20220811021501 36 319 9.7 29.0 0.00 0.00 0.00 34 996.7
20220811021101 36 300 8.0 27.4 0.00 0.00 0.00 34 996.7
20220811021012 36 306 14.5 27.4 0.00 0.00 0.00 35 996.6
20220811020901 36 310 12.9 25.7 0.00 0.00 0.00 35 996.6
20220811020405 36 308 14.5 24.1 0.00 0.00 0.00 35 996.8
20220811020301 36 320 16.1 24.1 0.00 0.00 0.00 35 996.7
20220811020201 36 294 11.3 24.1 0.00 0.00 0.00 34 996.7
20220811020009 36 336 14.5 24.1 0.00 0.00 0.00 35 996.6
20220811015901 36 302 14.5 24.1 0.00 0.00 0.00 36 996.7
20220811015801 36 289 20.9 24.1 0.00 0.00 0.00 36 996.7
20220811015302 36 303 6.4 27.4 0.00 0.00 0.00 36 996.6
20220811015205 36 327 12.9 27.4 0.00 0.00 0.00 36 996.6
20220811015103 36 350 3.2 27.4 0.00 0.00 0.00 35 996.6
20220811015003 36 319 14.5 27.4 0.00 0.00 0.00 35 996.6
20220811014701 36 319 16.1 32.2 0.00 0.00 0.00 36 996.6
20220811014601 36 333 22.5 32.2 0.00 0.00 0.00 37 996.6
20220811014404 36 296 14.5 32.2 0.00 0.00 0.00 36 996.5
20220811014007 36 300 14.5 30.6 0.00 0.00 0.00 39 996.5
20220811013901 36 323 16.1 30.6 0.00 0.00 0.00 38 996.5
20220811013403 36 297 14.5 27.4 0.00 0.00 0.00 38 996.6
20220811013104 36 312 9.7 35.4 0.00 0.00 0.00 39 996.6
20220811012803 36 292 19.3 35.4 0.00 0.00 0.00 38 996.5
20220811012305 36 309 25.7 35.4 0.00 0.00 0.00 38 996.6
20220811012101 36 316 22.5 32.2 0.00 0.00 0.00 39 996.6
20220811011802 36 350 25.7 33.8 0.00 0.00 0.00 39 996.6
20220811011701 36 294 14.5 33.8 0.00 0.00 0.00 40 996.6
20220811011600 36 326 22.5 33.8 0.00 0.00 0.00 37 996.7
20220811011505 36 287 14.5 33.8 0.00 0.00 0.00 39 996.6
20220811011401 36 347 22.5 33.8 0.00 0.00 0.00 39 996.6
20220811011201 36 342 22.5 32.2 0.00 0.00 0.00 38 996.6
20220811011104 36 341 16.1 32.2 0.00 0.00 0.00 39 996.5
20220811010601 36 360 14.5 32.2 0.00 0.00 0.00 40 996.5
20220811010504 36 306 24.1 32.2 0.00 0.00 0.00 40 996.4
20220811010304 36 345 24.1 29.0 0.00 0.00 0.00 41 996.4
20220811010201 36 302 19.3 29.0 0.00 0.00 0.00 40 996.4
20220811010007 36 340 19.3 33.8 0.00 0.00 0.00 38 996.4
20220811005700 36 308 14.5 33.8 0.00 0.00 0.00 40 996.3
20220811005603 36 321 17.7 33.8 0.00 0.00 0.00 40 996.5
20220811005501 36 304 22.5 33.8 0.00 0.00 0.00 40 996.4
20220811005401 36 323 22.5 33.8 0.00 0.00 0.00 39 996.4
20220811005100 36 329 9.7 30.6 0.00 0.00 0.00 40 996.4
20220811004900 36 327 14.5 30.6 0.00 0.00 0.00 40 996.4
20220811004803 36 328 9.7 30.6 0.00 0.00 0.00 39 996.3
20220811004600 36 302 8.0 30.6 0.00 0.00 0.00 39 996.4
20220811004501 36 340 9.7 30.6 0.00 0.00 0.00 37 996.3
20220811004404 36 338 12.9 30.6 0.00 0.00 0.00 38 996.4
20220811004200 36 347 19.3 30.6 0.00 0.00 0.00 39 996.4
20220811003801 36 323 20.9 30.6 0.00 0.00 0.00 39 996.5
20220811003504 36 306 22.5 27.4 0.00 0.00 0.00 39 996.4
20220811003400 36 338 17.7 27.4 0.00 0.00 0.00 39 996.4
20220811003301 36 292 11.3 27.4 0.00 0.00 0.00 39 996.4
20220811003200 36 17 17.7 32.2 0.00 0.00 0.00 39 996.4
20220811003103 36 250 16.1 32.2 0.00 0.00 0.00 39 996.4
20220811002800 36 334 19.3 32.2 0.00 0.00 0.00 40 996.4
20220811002703 36 326 20.9 32.2 0.00 0.00 0.00 39 996.4
20220811002500 36 294 17.7 32.2 0.00 0.00 0.00 39 996.4
20220811001900 36 333 14.5 27.4 0.00 0.00 0.00 38 996.3
20220811001800 36 331 25.7 29.0 0.00 0.00 0.00 39 996.2
20220811001603 36 297 16.1 29.0 0.00 0.00 0.00 37 996.2
20220811001400 36 323 8.0 29.0 0.00 0.00 0.00 38 996.2
20220811001002 36 311 19.3 29.0 0.00 0.00 0.00 38 996.2
20220811000805 37 321 8.0 29.0 0.00 0.00 0.00 39 996.2
20220811000504 37 306 8.0 29.0 0.00 0.00 0.00 37 996.1
20220811000401 37 313 22.5 29.0 0.00 0.00 0.00 37 996.1
20220811000300 37 319 12.9 29.0 0.00 0.00 0.00 37 996.1
20220811000200 37 329 14.5 29.0 0.00 0.00 0.00 37 996.2
20220811000104 37 328 8.0 29.0 0.00 0.00 0.00 36 996.0
20220811000007 37 311 14.5 29.0 0.00 0.00 0.00 38 996.1
20220810235801 37 300 8.0 24.1 0.00 0.00 0.00 37 996.1
20220810235702 37 316 20.9 24.1 0.00 0.00 0.00 38 996.1
20220810235501 37 313 9.7 25.7 0.00 0.00 0.00 37 996.1
20220810235305 37 323 19.3 25.7 0.00 0.00 0.00 37 996.2
20220810235001 37 266 14.5 27.4 0.00 0.00 0.00 36 996.2